Vertical_Velocity
29 23 18 16 17 18 16 8 -1 -5 -5 -2 -1 -1 -0 1 3 4 5 5 4 2 0 -1 1 2 3 3 2 4 4 -1 -14 -18 -16 -8 -2 3 8 12 12 15 19 25 24 18 10 3 3 5 6 7 7 8 8 6 2 -2 -5 -6 -5 -3 -0 1 -0 -1 -1 0 1
38 32 22 9 3 4 10 15 7 1 -2 0 3 5 5 4 4 5 5 4 4 3 3 3 5 6 6 6 6 6 3 -2 -8 -12 -14 -12 -5 3 11 14 16 20 24 23 15 7 1 -1 -1 1 2 4 5 5 4 0 -3 -6 -6 -6 -4 -2 0 2 0 -0 -0 1 1
31 35 35 30 20 11 7 8 8 7 5 4 8 13 15 15 15 15 14 13 13 12 12 11 10 10 8 8 7 4 1 -1 3 3 -0 -6 -4 4 13 19 24 24 21 14 6 1 -2 -2 -3 -3 -2 1 3 3 0 -4 -6 -6 -5 -4 -2 -0 1 2 1 0 -0 0 1
24 33 40 41 36 28 20 12 9 9 10 8 10 12 13 14 17 18 19 20 20 19 18 16 14 12 9 7 5 2 0 1 10 14 13 6 5 9 16 23 23 19 14 10 5 1 -2 -3 -3 -2 0 4 5 3 -1 -5 -4 -3 -1 -1 0 1 2 2 1 0 -0 -0 0
16 25 33 38 36 34 32 29 23 19 17 17 18 17 14 10 12 14 17 21 21 21 19 16 13 10 7 4 1 -0 0 3 9 13 14 13 13 16 19 21 16 12 10 10 6 1 -2 -3 -1 2 6 8 6 2 -2 -4 -1 1 1 1 1 1 2 3 1 0 -0 -0 0
6 15 25 33 31 31 31 32 32 30 28 27 28 29 30 26 25 23 22 22 22 21 19 14 11 7 4 0 -2 -2 0 4 8 10 12 14 17 19 19 16 10 7 6 6 3 0 -1 -1 1 5 9 9 5 1 -1 1 2 2 1 -0 -1 1 2 3 1 1 0 -0 0
-2 2 11 22 25 25 23 23 26 29 31 33 30 28 29 31 34 33 29 23 21 19 16 10 6 3 -0 -3 -4 -3 -0 4 8 11 14 16 18 16 12 4 1 -0 -0 -1 -1 -1 -0 1 4 6 7 6 3 1 0 2 2 1 -1 -2 -1 1 3 3 2 1 1 0 0
1 -2 -1 4 11 14 15 15 16 19 23 27 26 25 23 23 25 23 20 17 12 6 1 -1 -1 -1 -1 -1 -1 1 3 6 10 13 14 15 13 6 -3 -8 -5 -2 -1 -1 -2 -1 -1 1 3 4 4 3 1 -0 -1 -0 0 -0 -1 -1 0 2 3 3 3 2 2 1 1
7 3 -2 -4 -0 5 9 11 10 11 11 12 15 16 17 18 16 13 8 3 -4 -8 -9 -4 1 3 3 4 5 6 7 8 8 8 9 12 10 3 -2 -4 0 3 3 2 0 -1 -2 -1 -0 1 1 1 -0 -1 -1 -0 1 1 1 2 2 2 3 3 3 3 2 1 1
7 5 2 -3 -4 -3 1 4 4 2 1 0 1 3 5 7 6 4 1 -4 -6 -5 -2 3 5 6 6 6 6 6 6 5 2 1 3 8 10 10 9 9 10 9 6 2 0 -1 -2 -2 -2 -1 -1 -0 -0 -0 -0 1 1 2 2 3 3 2 2 2 3 3 3 2 1
5 5 4 1 -2 -4 -6 -6 -4 -4 -4 -6 -6 -5 -4 -2 -1 -1 -1 -1 -0 2 4 4 5 6 6 6 5 4 3 1 -0 -0 2 6 9 10 9 10 12 11 8 3 0 -0 -0 -0 -0 0 0 0 0 0 0 0 1 1 2 2 2 2 1 1 3 3 3 2 0
1 4 5 3 1 -0 -1 -3 -4 -5 -6 -6 -6 -5 -4 -3 -1 1 2 4 4 5 5 4 5 5 6 7 6 3 0 -2 -1 1 3 6 6 4 3 1 5 8 9 7 5 4 4 4 4 3 2 1 1 0 0 1 0 0 0 1 1 1 1 2 3 3 2 0 -1
-1 1 4 4 2 1 1 1 -0 -2 -4 -5 -4 -4 -2 -0 1 1 2 4 5 5 5 5 5 5 6 7 7 5 2 -1 -1 1 3 4 3 2 0 -1 -0 3 7 10 11 11 11 11 10 7 4 1 -0 -0 0 1 1 0 0 1 2 2 2 2 2 2 -0 -2 -3
-1 -0 2 4 3 1 -0 -1 -0 -0 -0 -1 -2 -3 -3 -1 0 0 0 0 1 2 3 4 4 5 6 8 8 6 3 0 -1 -1 1 2 2 3 3 1 1 2 5 8 11 12 13 13 12 10 6 1 -2 -3 -1 0 0 0 0 2 3 3 2 2 1 -1 -3 -5 -4
-0 -0 1 4 4 3 1 -0 -1 -1 -0 1 1 0 -1 -2 -2 -2 -1 -1 -1 -0 1 2 3 4 6 8 8 6 3 0 -1 -1 -0 1 3 4 4 3 2 2 4 6 7 8 7 7 8 8 6 3 -1 -3 -3 -1 -1 -1 -0 2 3 3 2 1 -1 -3 -5 -6 -4
0 -1 -0 1 4 4 3 2 1 0 -0 0 1 2 2 0 -1 -2 -3 -3 -2 -1 -0 0 1 3 4 6 8 7 5 2 -0 -0 0 2 4 5 5 4 3 3 4 5 5 3 1 -0 1 4 6 6 3 1 -0 -1 -2 -3 -1 2 3 2 1 -0 -2 -3 -5 -6 -3
0 -0 -1 -1 1 3 4 3 2 2 1 0 0 1 2 3 2 1 -1 -2 -3 -3 -2 -1 0 1 2 4 6 6 6 4 2 2 3 5 8 8 7 4 4 4 4 4 3 1 -1 -2 -1 2 6 8 6 5 3 1 -2 -4 -3 0 1 1 1 -0 -1 -2 -4 -5 -2
-0 -0 -0 -1 -1 -0 1 2 2 1 1 1 0 0 1 2 3 3 2 1 -1 -2 -3 -3 -2 -0 1 2 3 4 4 3 2 3 4 7 10 11 10 7 6 5 4 3 1 -0 -1 -0 2 5 7 7 6 4 2 1 -2 -4 -4 -2 -0 1 1 0 0 -1 -3 -4 -1
-2 -1 -1 -1 -2 -2 -1 0 1 1 0 0 0 -0 -0 -0 1 3 4 3 2 0 -1 -2 -3 -2 -1 0 0 0 0 0 0 1 3 5 8 11 12 12 11 9 5 1 -0 -0 0 2 4 6 7 6 4 1 -2 -3 -3 -3 -3 -2 0 1 2 2 1 -1 -3 -3 0
-3 -3 -2 -2 -1 -2 -2 -2 -2 -1 -1 -0 0 0 -0 -1 -1 0 1 3 3 2 1 -1 -2 -3 -3 -2 -1 -2 -2 -2 -2 -1 1 3 5 9 13 16 16 12 6 1 1 1 1 2 3 4 4 4 1 -2 -5 -7 -4 -2 -1 -0 2 3 3 3 2 -1 -3 -3 1
-3 -4 -4 -4 -2 -2 -2 -2 -3 -3 -3 -3 -2 -1 0 1 0 -0 -0 1 1 2 2 1 -1 -2 -4 -4 -3 -3 -3 -3 -2 -2 -0 1 4 7 11 16 15 11 7 5 4 3 3 2 2 2 2 2 -0 -4 -6 -8 -5 -2 0 2 3 3 4 3 1 -2 -4 -3 1
-2 -3 -4 -4 -4 -3 -2 -2 -2 -2 -3 -4 -4 -4 -4 -2 -0 1 1 1 1 2 2 2 1 -1 -2 -4 -4 -4 -3 -2 -2 -2 -1 -0 2 5 8 10 9 8 8 9 9 8 6 4 2 1 1 0 -1 -4 -6 -8 -6 -3 -0 2 3 4 4 4 1 -3 -5 -3 1
-2 -2 -3 -3 -4 -4 -4 -3 -2 -2 -2 -2 -3 -5 -6 -7 -6 -4 -2 0 1 2 3 4 3 2 0 -1 -2 -3 -3 -3 -3 -3 -3 -2 0 3 4 4 5 6 6 7 8 8 8 6 4 2 0 -1 -1 -3 -5 -8 -7 -5 -1 1 3 4 4 4 0 -3 -4 -1 2
-2 -2 -2 -2 -3 -3 -4 -4 -4 -4 -3 -3 -2 -2 -3 -5 -6 -7 -7 -6 -3 -1 1 3 3 3 2 0 -1 -2 -3 -3 -4 -4 -3 -2 -0 1 3 4 5 4 4 3 3 4 5 6 4 2 0 -1 -1 -2 -4 -7 -7 -5 -2 2 4 5 5 4 0 -2 -3 1 2
-3 -2 -2 -2 -2 -3 -3 -3 -4 -4 -4 -3 -3 -2 -2 -2 -2 -4 -5 -7 -7 -7 -6 -5 -3 -2 -1 -2 -2 -3 -3 -3 -3 -2 -1 -0 2 3 4 6 6 4 2 0 -0 0 1 2 2 1 0 -1 -1 -1 -3 -6 -7 -4 0 4 6 7 7 5 0 -2 -1 1 2
-2 -2 -2 -3 -3 -3 -3 -3 -3 -4 -4 -4 -3 -3 -2 -2 -1 -1 -2 -3 -4 -5 -6 -7 -7 -7 -6 -5 -4 -4 -3 -2 -0 1 2 3 4 4 4 4 3 2 1 -0 -1 -1 -1 -0 1 1 0 0 1 0 -2 -6 -6 -3 2 6 8 8 7 3 -1 -2 -1 1 2
-1 -1 -2 -3 -3 -3 -3 -3 -3 -3 -3 -3 -3 -3 -2 -2 -2 -1 -1 -0 -1 -2 -3 -4 -5 -6 -7 -7 -6 -5 -3 -0 3 5 6 6 5 4 3 2 1 1 1 2 1 -0 -1 -0 1 1 2 2 2 1 -1 -4 -5 -2 1 5 7 6 4 -1 -4 -4 -2 1 2
-0 -1 -1 -2 -2 -3 -3 -3 -3 -3 -3 -3 -3 -3 -3 -2 -2 -2 -1 -0 -0 -0 -0 -0 -1 -3 -4 -5 -5 -4 -3 -1 4 8 10 11 9 8 6 4 3 3 4 5 5 2 0 -0 0 1 2 3 3 2 -0 -3 -4 -3 -1 3 4 3 1 -3 -4 -4 -1 0 1
-0 -0 -1 -1 -1 -2 -2 -3 -3 -3 -4 -4 -3 -3 -3 -3 -3 -2 -1 -1 -1 -0 0 1 1 0 -1 -2 -3 -3 -2 -1 0 3 7 12 13 12 10 8 6 6 7 9 7 3 -1 -2 -2 -1 0 2 3 2 -0 -3 -4 -3 -2 0 1 1 -1 -3 -4 -2 -1 1 1
-1 -1 -1 -1 -1 -1 -2 -2 -3 -3 -4 -4 -4 -3 -3 -3 -4 -3 -2 -1 -1 -0 0 0 1 1 1 0 -1 -1 -1 -1 -1 0 1 3 8 11 12 11 10 10 11 13 7 1 -3 -4 -4 -4 -2 0 1 1 1 1 4 4 2 -1 -1 -2 -2 -2 -2 -1 0 1 2
-2 -2 -2 -2 -1 -1 -2 -2 -2 -3 -3 -3 -4 -4 -4 -3 -4 -4 -4 -3 -2 -1 -0 0 1 1 1 1 1 1 0 -0 -0 -0 -0 -0 1 4 8 10 10 12 13 14 7 0 -5 -5 -5 -4 -3 -2 0 3 6 10 11 8 4 -1 -3 -4 -3 -2 -1 0 1 2 2
-2 -3 -3 -2 -2 -2 -2 -2 -2 -2 -3 -3 -3 -4 -4 -4 -4 -4 -4 -4 -4 -3 -2 -0 0 1 1 2 2 2 1 1 0 0 -0 -1 -1 0 3 6 8 11 14 16 12 8 6 5 5 8 11 13 9 5 3 4 5 4 2 -1 -4 -5 -5 -3 -2 -0 1 2 2
-2 -2 -3 -3 -3 -2 -2 -2 -2 -2 -3 -3 -3 -3 -3 -4 -4 -4 -4 -4 -4 -4 -4 -3 -2 -1 0 1 1 1 1 1 1 0 -0 -1 -1 -0 1 5 7 9 12 14 15 16 17 18 19 23 25 22 8 1 -1 1 3 2 0 -3 -5 -6 -5 -4 -2 -1 0 0 -0
-1 -2 -2 -2 -3 -3 -2 -2 -2 -2 -2 -2 -3 -3 -3 -3 -4 -4 -4 -4 -4 -4 -5 -6 -5 -4 -3 -1 -0 -0 -0 -0 -0 -1 -1 -1 -1 -1 0 4 8 9 9 9 10 11 14 16 19 19 16 9 3 -1 -2 -0 0 -0 -2 -5 -7 -7 -6 -3 -1 0 1 0 -1
-1 -1 -2 -2 -2 -2 -2 -2 -2 -1 -1 -1 -2 -3 -3 -3 -3 -3 -3 -4 -4 -4 -4 -5 -6 -6 -6 -5 -4 -3 -2 -2 -2 -2 -2 -1 -1 -1 -0 2 5 7 8 6 6 5 6 7 7 6 4 2 0 -1 -2 -3 -4 -4 -5 -7 -10 -9 -7 -3 0 2 2 1 -1
-2 -2 -2 -2 -2 -2 -2 -2 -2 -2 -1 -1 -1 -2 -2 -3 -3 -3 -3 -3 -3 -3 -3 -3 -4 -5 -6 -7 -7 -6 -5 -3 -3 -3 -3 -2 -2 -1 -0 1 2 4 6 8 5 3 2 3 3 2 2 1 1 -1 -3 -5 -6 -7 -8 -10 -12 -12 -10 -6 -1 1 1 -1 -2
-2 -2 -2 -2 -2 -2 -2 -2 -2 -2 -2 -1 -1 -1 -1 -2 -3 -3 -3 -3 -3 -3 -3 -2 -2 -2 -3 -4 -5 -6 -6 -5 -4 -4 -4 -3 -3 -2 -1 0 1 2 4 8 6 2 -0 -0 -0 0 1 1 1 0 -1 -4 -6 -8 -10 -11 -12 -12 -11 -8 -4 -3 -3 -5 -4
-2 -2 -2 -2 -2 -2 -2 -2 -2 -2 -2 -2 -1 -1 -1 -1 -2 -2 -3 -3 -3 -3 -3 -2 -2 -2 -1 -0 -1 -2 -4 -5 -5 -4 -4 -4 -4 -4 -3 -1 1 2 4 7 7 4 0 -2 -1 -1 -0 0 1 0 -0 -2 -4 -6 -7 -8 -8 -7 -7 -6 -4 -4 -5 -6 -4
-2 -2 -2 -2 -2 -2 -2 -2 -2 -2 -2 -2 -2 -1 -1 -1 -1 -1 -2 -2 -3 -3 -2 -2 -2 -2 -1 -0 1 1 0 -2 -4 -4 -4 -4 -4 -4 -4 -3 -1 1 4 8 11 9 5 1 -1 -1 -1 -1 -1 -0 -1 -1 -2 -3 -4 -4 -2 -1 -0 0 0 -0 -1 -1 0
-2 -2 -2 -3 -2 -2 -2 -2 -2 -2 -2 -2 -2 -1 -1 -1 -1 -1 -1 -2 -2 -2 -2 -2 -2 -1 -1 -1 0 1 2 2 0 -1 -3 -4 -4 -4 -4 -3 -3 -1 2 8 13 14 12 7 3 1 0 -1 -2 -2 -2 -2 -3 -4 -4 -3 -1 1 2 3 4 4 4 4 4
-2 -2 -2 -3 -3 -2 -2 -2 -2 -1 -1 -1 -1 -1 -1 -1 -1 -1 -1 -1 -1 -2 -2 -2 -2 -1 -1 -1 -0 0 1 2 2 1 0 -1 -2 -2 -3 -3 -3 -2 -1 3 8 12 13 13 10 7 5 2 -0 -2 -3 -4 -4 -5 -5 -5 -3 -1 0 2 3 4 4 4 5
Height
2928 2928 2927 2927 2928 2928 2929 2930 2931 2932 2933 2935 2936 2938 2939 2941 2942 2944 2946 2948 2950 2953 2955 2958 2961 2964 2968 2970 2973 2974 2977 2979 2982 2984 2986 2988 2989 2990 2992 2993 2995 2997 2999 3001 3002 3003 3003 3005 3006 3008 3009 3011 3013 3016 3018 3020 3022 3024 3027 3029 3031 3033 3034 3034 3035 3036 3037 3038 3039
2932 2931 2929 2928 2927 2928 2929 2931 2933 2935 2936 2937 2938 2940 2941 2942 2943 2945 2947 2950 2952 2955 2957 2960 2963 2966 2969 2971 2974 2976 2978 2980 2983 2984 2986 2988 2989 2990 2992 2993 2995 2997 2999 2999 2999 3000 3001 3002 3004 3005 3007 3010 3012 3014 3017 3019 3021 3023 3026 3028 3030 3032 3033 3033 3033 3034 3036 3037 3038
2935 2934 2933 2932 2931 2931 2932 2933 2935 2937 2938 2939 2940 2941 2943 2945 2947 2948 2950 2953 2955 2958 2960 2963 2965 2968 2970 2973 2975 2977 2979 2981 2983 2984 2986 2987 2989 2991 2992 2993 2995 2997 2997 2996 2997 2998 2999 3001 3002 3004 3007 3009 3012 3014 3016 3018 3021 3023 3025 3027 3029 3030 3031 3032 3032 3033 3034 3036 3037
2936 2937 2937 2937 2937 2937 2937 2936 2937 2938 2940 2942 2943 2944 2945 2947 2949 2950 2952 2955 2957 2959 2961 2964 2967 2969 2971 2974 2976 2978 2980 2981 2982 2983 2985 2987 2989 2991 2993 2994 2994 2994 2994 2994 2996 2997 2999 3000 3001 3004 3007 3009 3011 3013 3015 3018 3020 3023 3025 3026 3028 3028 3029 3030 3031 3032 3033 3034 3035
2936 2937 2938 2939 2940 2941 2941 2941 2941 2941 2942 2944 2945 2947 2948 2949 2950 2952 2954 2956 2958 2960 2963 2965 2968 2970 2972 2974 2977 2979 2980 2980 2981 2983 2985 2987 2989 2991 2992 2992 2992 2993 2993 2994 2995 2997 2998 2999 3001 3004 3007 3009 3011 3013 3015 3017 3020 3022 3023 3025 3026 3027 3028 3029 3029 3030 3031 3033 3033
2937 2937 2938 2940 2941 2942 2943 2944 2945 2946 2946 2948 2949 2950 2951 2952 2953 2954 2956 2958 2960 2962 2964 2966 2968 2970 2973 2975 2977 2979 2979 2980 2981 2983 2985 2987 2988 2989 2990 2990 2991 2992 2993 2994 2995 2996 2997 2999 3002 3004 3006 3008 3009 3012 3014 3016 3018 3020 3022 3023 3024 3026 3027 3027 3028 3029 3030 3031 3031
2939 2939 2939 2940 2941 2943 2944 2945 2946 2948 2949 2951 2952 2952 2953 2954 2955 2957 2958 2960 2962 2964 2966 2968 2969 2971 2973 2975 2977 2978 2978 2979 2981 2983 2984 2986 2987 2988 2988 2989 2990 2991 2992 2993 2994 2996 2997 2999 3001 3003 3005 3007 3008 3011 3013 3015 3017 3018 3020 3022 3023 3024 3025 3026 3027 3027 3028 3028 3029
2942 2941 2941 2941 2942 2943 2944 2945 2946 2948 2949 2950 2952 2953 2954 2954 2955 2956 2958 2960 2962 2964 2967 2969 2971 2972 2973 2975 2976 2977 2978 2979 2981 2982 2984 2985 2986 2986 2987 2988 2988 2990 2991 2992 2994 2995 2997 2999 3001 3002 3004 3006 3008 3010 3012 3014 3016 3017 3019 3020 3021 3022 3023 3024 3025 3025 3026 3027 3027
2944 2944 2943 2943 2943 2944 2944 2945 2946 2946 2948 2949 2950 2952 2953 2954 2955 2956 2958 2960 2963 2965 2967 2969 2971 2972 2973 2975 2976 2977 2978 2979 2980 2982 2983 2984 2985 2986 2986 2987 2988 2989 2990 2991 2993 2995 2997 2998 3000 3001 3003 3005 3007 3009 3011 3013 3014 3016 3017 3018 3019 3020 3021 3022 3023 3023 3024 3024 3025
2947 2946 2946 2946 2946 2946 2946 2946 2946 2947 2948 2949 2950 2951 2953 2954 2955 2957 2959 2961 2963 2965 2966 2968 2970 2972 2973 2974 2975 2977 2978 2978 2980 2981 2982 2983 2984 2985 2986 2987 2988 2988 2989 2991 2992 2994 2996 2997 2999 3000 3002 3004 3006 3008 3009 3011 3013 3014 3015 3016 3017 3018 3019 3020 3021 3022 3022 3023 3023
2949 2948 2948 2948 2948 2949 2949 2948 2948 2949 2949 2950 2951 2952 2953 2955 2956 2958 2960 2962 2963 2965 2966 2968 2969 2971 2973 2974 2975 2976 2977 2978 2979 2981 2982 2983 2983 2984 2985 2986 2987 2988 2989 2990 2991 2993 2994 2996 2998 2999 3001 3003 3004 3006 3008 3009 3011 3012 3013 3014 3015 3016 3017 3018 3019 3019 3020 3020 3021
2951 2951 2950 2950 2950 2951 2951 2951 2951 2952 2952 2953 2953 2954 2955 2956 2957 2959 2961 2963 2964 2965 2967 2968 2969 2970 2972 2973 2974 2975 2977 2978 2979 2980 2981 2982 2982 2983 2984 2985 2987 2988 2989 2989 2991 2992 2993 2995 2997 2998 3000 3001 3003 3004 3006 3007 3008 3010 3011 3012 3013 3014 3015 3016 3017 3017 3018 3018 3019
2953 2953 2953 2952 2952 2952 2953 2953 2953 2954 2955 2955 2956 2956 2957 2958 2958 2959 2960 2962 2963 2965 2966 2968 2968 2970 2971 2972 2973 2975 2976 2977 2978 2979 2980 2982 2982 2983 2984 2985 2986 2988 2989 2990 2991 2992 2993 2994 2996 2997 2998 3000 3001 3003 3004 3005 3007 3008 3009 3010 3011 3012 3013 3013 3014 3014 3015 3016 3018
2955 2955 2955 2955 2954 2954 2954 2954 2955 2956 2957 2957 2958 2958 2959 2959 2959 2960 2960 2961 2963 2964 2966 2967 2968 2969 2970 2971 2973 2974 2975 2977 2978 2979 2980 2981 2983 2983 2984 2985 2986 2988 2989 2990 2991 2992 2993 2994 2995 2996 2997 2998 2999 3000 3002 3003 3005 3006 3007 3008 3009 3009 3010 3011 3012 3012 3013 3015 3016
2957 2957 2957 2957 2957 2957 2956 2956 2957 2957 2958 2958 2959 2960 2960 2961 2961 2962 2962 2962 2963 2964 2965 2966 2967 2968 2969 2971 2972 2973 2974 2976 2977 2978 2980 2981 2983 2984 2985 2986 2987 2988 2989 2990 2991 2992 2992 2993 2994 2994 2995 2996 2998 2999 3000 3002 3003 3004 3005 3005 3006 3007 3008 3008 3009 3011 3012 3014 3015
2959 2958 2958 2958 2959 2959 2958 2958 2958 2958 2959 2959 2960 2961 2961 2962 2963 2963 2964 2964 2965 2965 2966 2966 2967 2968 2969 2970 2971 2973 2973 2975 2976 2978 2979 2981 2983 2984 2985 2985 2986 2987 2988 2989 2990 2991 2991 2992 2992 2993 2994 2995 2996 2997 2998 2999 3000 3001 3002 3003 3004 3005 3005 3006 3008 3009 3011 3013 3014
2960 2960 2960 2960 2961 2961 2961 2961 2960 2960 2960 2961 2961 2962 2962 2963 2963 2964 2965 2966 2966 2967 2967 2967 2968 2968 2969 2970 2971 2972 2973 2974 2976 2977 2978 2980 2982 2983 2984 2985 2985 2986 2987 2988 2988 2989 2990 2990 2991 2992 2993 2993 2994 2995 2996 2997 2998 2998 2999 3000 3002 3003 3004 3005 3006 3008 3009 3011 3013
2962 2962 2962 2962 2962 2962 2963 2963 2963 2962 2962 2962 2962 2963 2963 2963 2964 2964 2965 2965 2966 2967 2968 2968 2968 2969 2969 2970 2971 2971 2972 2973 2975 2976 2978 2979 2981 2983 2983 2984 2985 2985 2986 2986 2986 2987 2988 2989 2990 2990 2991 2992 2992 2993 2993 2995 2996 2996 2997 2998 2999 3001 3002 3003 3004 3006 3008 3010 3011
2964 2963 2963 2963 2964 2964 2964 2964 2964 2964 2964 2964 2964 2964 2964 2964 2965 2965 2965 2966 2966 2967 2968 2968 2969 2969 2970 2970 2971 2971 2972 2973 2974 2975 2977 2978 2980 2981 2983 2983 2984 2984 2984 2984 2985 2986 2987 2987 2988 2988 2989 2990 2991 2991 2992 2993 2994 2995 2995 2996 2998 2999 3000 3002 3003 3005 3007 3009 3009
2965 2965 2965 2965 2965 2965 2965 2965 2965 2965 2966 2966 2966 2965 2965 2965 2966 2966 2966 2966 2967 2967 2968 2968 2969 2970 2970 2971 2971 2972 2972 2973 2974 2975 2976 2977 2978 2980 2981 2983 2983 2983 2982 2982 2983 2984 2985 2986 2986 2987 2987 2988 2989 2990 2991 2992 2993 2994 2994 2995 2997 2998 2999 3000 3001 3003 3005 3007 3008
2967 2966 2966 2966 2966 2966 2966 2967 2967 2967 2967 2967 2967 2967 2967 2967 2967 2967 2967 2967 2967 2968 2968 2968 2969 2969 2970 2971 2971 2972 2972 2973 2974 2975 2975 2976 2977 2979 2980 2981 2981 2980 2980 2981 2982 2983 2983 2984 2984 2985 2986 2987 2988 2989 2990 2991 2992 2993 2994 2994 2995 2996 2997 2998 3000 3002 3004 3006 3007
2968 2968 2967 2967 2967 2967 2967 2967 2968 2968 2968 2968 2968 2968 2968 2968 2968 2968 2968 2968 2968 2968 2968 2968 2969 2969 2970 2971 2971 2972 2973 2973 2974 2974 2975 2976 2977 2978 2978 2979 2979 2978 2979 2979 2980 2981 2982 2982 2983 2983 2984 2985 2986 2987 2988 2989 2991 2992 2992 2993 2994 2994 2995 2997 2998 3000 3003 3004 3005
2969 2968 2968 2968 2968 2968 2968 2968 2968 2968 2968 2968 2968 2968 2968 2969 2969 2969 2969 2968 2968 2969 2969 2969 2969 2970 2970 2971 2971 2972 2972 2973 2973 2973 2974 2975 2976 2977 2977 2977 2978 2978 2978 2979 2979 2980 2980 2981 2981 2982 2983 2983 2984 2985 2987 2988 2988 2989 2990 2991 2992 2993 2994 2995 2997 2999 3001 3003 3003
2970 2969 2969 2969 2969 2969 2968 2968 2968 2968 2968 2968 2968 2968 2968 2968 2969 2969 2969 2969 2969 2969 2969 2970 2970 2970 2970 2970 2971 2971 2971 2972 2972 2973 2973 2974 2975 2976 2976 2976 2977 2977 2978 2978 2978 2978 2979 2979 2980 2980 2981 2981 2982 2983 2985 2986 2987 2987 2988 2989 2990 2992 2993 2994 2996 2998 3000 3001 3002
2970 2970 2970 2970 2969 2969 2969 2969 2969 2969 2969 2968 2968 2968 2968 2968 2968 2969 2969 2969 2970 2970 2970 2970 2970 2970 2970 2970 2970 2970 2971 2971 2971 2972 2973 2973 2974 2974 2975 2975 2976 2976 2976 2977 2977 2977 2978 2978 2978 2978 2979 2979 2980 2982 2983 2984 2985 2986 2987 2988 2989 2990 2992 2993 2995 2997 2998 2999 2999
2971 2971 2971 2970 2970 2970 2969 2969 2969 2969 2969 2969 2969 2969 2968 2968 2968 2969 2969 2969 2969 2969 2970 2970 2970 2970 2970 2970 2970 2970 2970 2971 2971 2972 2972 2973 2973 2973 2974 2974 2974 2975 2975 2975 2975 2976 2976 2977 2977 2977 2978 2978 2978 2979 2981 2982 2983 2984 2985 2986 2987 2988 2990 2991 2993 2994 2996 2997 2997
2972 2972 2971 2971 2970 2970 2970 2969 2969 2969 2969 2969 2969 2969 2969 2968 2968 2968 2969 2969 2969 2969 2969 2969 2969 2970 2970 2970 2970 2970 2970 2971 2971 2971 2972 2972 2972 2972 2973 2973 2973 2973 2973 2974 2974 2974 2974 2975 2976 2976 2976 2976 2977 2978 2978 2980 2981 2982 2983 2984 2985 2986 2988 2989 2991 2992 2994 2995 2995
2973 2972 2972 2971 2971 2970 2970 2970 2969 2969 2969 2969 2969 2968 2968 2968 2968 2968 2968 2968 2968 2969 2969 2969 2969 2969 2969 2970 2970 2970 2970 2970 2971 2971 2971 2972 2972 2972 2972 2972 2972 2973 2973 2973 2973 2973 2973 2973 2973 2974 2974 2974 2975 2975 2977 2978 2979 2981 2982 2983 2983 2984 2985 2987 2988 2990 2992 2993 2993
2973 2973 2972 2972 2971 2971 2970 2970 2969 2969 2969 2968 2968 2968 2968 2968 2968 2968 2968 2968 2968 2968 2968 2968 2968 2968 2968 2969 2969 2969 2970 2970 2969 2969 2970 2970 2971 2971 2971 2971 2971 2972 2972 2972 2972 2971 2971 2971 2971 2971 2972 2972 2973 2973 2975 2976 2978 2980 2980 2981 2981 2982 2983 2985 2987 2988 2990 2991 2992
2973 2973 2972 2972 2971 2971 2970 2970 2969 2969 2968 2968 2968 2968 2968 2967 2967 2967 2967 2967 2967 2967 2967 2967 2967 2967 2968 2968 2968 2968 2968 2969 2969 2968 2968 2968 2969 2969 2970 2970 2970 2971 2971 2971 2971 2970 2970 2970 2970 2970 2970 2971 2971 2973 2974 2976 2978 2978 2978 2978 2979 2980 2981 2983 2985 2986 2988 2989 2990
2973 2973 2972 2972 2971 2971 2970 2970 2969 2969 2968 2968 2968 2967 2967 2967 2966 2966 2966 2966 2966 2966 2966 2966 2966 2966 2966 2966 2967 2967 2967 2967 2968 2968 2968 2967 2967 2967 2968 2969 2969 2969 2970 2970 2970 2969 2969 2969 2969 2969 2970 2971 2972 2973 2974 2975 2975 2976 2976 2976 2977 2978 2979 2981 2983 2984 2986 2987 2988
2973 2972 2972 2971 2971 2970 2970 2969 2969 2968 2968 2968 2967 2967 2966 2966 2965 2965 2965 2965 2965 2965 2965 2965 2965 2965 2965 2965 2965 2965 2965 2966 2966 2966 2967 2967 2966 2966 2967 2967 2968 2968 2968 2969 2969 2969 2969 2969 2969 2969 2970 2971 2972 2972 2972 2972 2972 2972 2973 2974 2975 2976 2977 2979 2981 2983 2984 2985 2987
2973 2972 2972 2971 2971 2970 2969 2969 2968 2968 2967 2967 2967 2966 2966 2965 2965 2964 2964 2964 2963 2963 2963 2963 2963 2963 2963 2963 2963 2963 2964 2964 2964 2964 2965 2965 2965 2965 2966 2966 2966 2966 2967 2967 2968 2969 2969 2969 2969 2969 2970 2969 2968 2968 2969 2969 2970 2970 2971 2972 2973 2975 2976 2978 2979 2981 2983 2984 2986
2973 2972 2971 2971 2970 2970 2969 2968 2968 2967 2967 2966 2966 2965 2965 2965 2964 2963 2963 2963 2962 2962 2962 2962 2962 2961 2961 2961 2962 2962 2962 2963 2963 2963 2963 2963 2963 2964 2965 2965 2965 2965 2965 2965 2966 2966 2967 2967 2968 2967 2967 2966 2965 2966 2967 2968 2968 2969 2969 2971 2972 2973 2975 2977 2978 2980 2982 2983 2985
2972 2972 2971 2970 2970 2969 2968 2968 2967 2967 2966 2965 2965 2965 2964 2964 2963 2963 2962 2962 2961 2961 2960 2960 2960 2960 2960 2959 2960 2960 2960 2961 2961 2961 2961 2961 2962 2962 2963 2963 2964 2964 2964 2963 2963 2963 2964 2965 2965 2964 2963 2963 2963 2964 2965 2966 2967 2968 2968 2969 2971 2972 2974 2976 2978 2979 2981 2982 2984
2972 2972 2971 2970 2969 2968 2968 2967 2967 2966 2965 2965 2964 2964 2963 2963 2963 2962 2962 2961 2960 2960 2959 2959 2958 2958 2958 2958 2958 2958 2958 2958 2959 2959 2959 2960 2960 2960 2960 2961 2962 2963 2963 2963 2962 2962 2962 2962 2962 2962 2962 2962 2962 2963 2964 2965 2965 2966 2967 2968 2969 2971 2973 2975 2977 2978 2980 2981 2983
2972 2971 2970 2970 2969 2968 2967 2967 2966 2965 2965 2964 2963 2963 2962 2962 2961 2961 2961 2960 2960 2959 2958 2958 2958 2957 2957 2957 2957 2956 2956 2956 2957 2957 2958 2958 2958 2958 2958 2959 2960 2961 2962 2962 2962 2961 2961 2961 2961 2961 2961 2961 2961 2962 2963 2964 2965 2966 2967 2968 2969 2970 2972 2974 2976 2977 2979 2980 2982
2971 2970 2970 2969 2968 2968 2967 2966 2965 2965 2964 2963 2963 2962 2961 2961 2960 2960 2959 2959 2959 2958 2958 2957 2957 2956 2956 2956 2956 2956 2955 2955 2955 2955 2955 2956 2956 2957 2957 2957 2958 2959 2960 2961 2961 2961 2960 2960 2959 2959 2959 2960 2960 2961 2962 2963 2964 2966 2967 2968 2969 2970 2972 2973 2974 2976 2978 2979 2980
2971 2970 2969 2968 2968 2967 2966 2965 2964 2963 2963 2962 2962 2961 2960 2959 2959 2958 2958 2958 2958 2957 2957 2956 2956 2955 2955 2954 2954 2954 2954 2954 2953 2953 2953 2954 2954 2955 2955 2955 2956 2957 2958 2959 2960 2960 2960 2959 2959 2959 2958 2959 2959 2960 2961 2962 2963 2965 2967 2968 2969 2970 2971 2973 2974 2975 2976 2978 2979
2970 2969 2969 2968 2967 2966 2965 2964 2963 2963 2962 2961 2961 2960 2959 2958 2958 2957 2957 2956 2956 2956 2955 2955 2954 2954 2954 2953 2953 2953 2953 2953 2953 2952 2952 2952 2952 2953 2953 2954 2954 2955 2956 2958 2958 2959 2959 2958 2958 2958 2958 2958 2958 2959 2959 2960 2962 2963 2965 2967 2968 2969 2970 2971 2973 2973 2975 2976 2977
2970 2969 2968 2967 2966 2966 2965 2964 2963 2962 2961 2960 2959 2959 2958 2958 2957 2956 2956 2955 2955 2954 2954 2954 2953 2953 2952 2952 2952 2952 2952 2951 2951 2951 2951 2950 2950 2951 2951 2952 2953 2953 2954 2955 2956 2957 2958 2958 2958 2958 2957 2957 2957 2958 2958 2959 2960 2961 2963 2964 2966 2967 2968 2969 2971 2972 2973 2974 2976